AUA21M LOWW-ESSA

Flight info

Callsign AUA21M
Flight time 1h 37m
Altitude 38000
Route LEDVA4D/34 LEDVA DCT KATQA DCT VAGON DCT XIDNA DCT BEZMI DCT PENOR/N0443F390 DCT VSB/N0443F380 DCT ROGMI/N0446F390 Z229 NILUG
Aircraft A20N/M-SDE2E3FGHIRWXY/LB1

Departure

Time 2026-04-26 16:57
Airport Vienna International Airport (LOWW)

Arrival

Time 2026-04-26 18:34
Airport Stockholm-Arlanda Airport (ESSA)
Time Latitude Longitude Altitude Speed Heading
2026-04-26 16:41 48.11789 16.56032 607 ft 0 kts 36°
2026-04-26 16:44 48.11778 16.56021 614 ft 4 kts 28°
2026-04-26 16:44 48.11760 16.56005 612 ft 4 kts 39°
2026-04-26 16:45 48.11741 16.55981 627 ft 4 kts 51°
2026-04-26 16:45 48.11734 16.55948 626 ft 4 kts 110°
2026-04-26 16:45 48.11744 16.55915 624 ft 3 kts 116°
2026-04-26 16:45 48.11754 16.55882 623 ft 1 kts 115°
2026-04-26 16:46 48.11755 16.55881 623 ft 0 kts 115°
2026-04-26 16:48 48.11754 16.55883 623 ft 2 kts 115°
2026-04-26 16:48 48.11723 16.55963 628 ft 12 kts 132°
2026-04-26 16:48 48.11645 16.55989 626 ft 12 kts 159°
2026-04-26 16:48 48.11596 16.56096 620 ft 15 kts 117°
2026-04-26 16:49 48.11547 16.56245 622 ft 17 kts 115°
2026-04-26 16:49 48.11488 16.56427 613 ft 21 kts 115°
2026-04-26 16:49 48.11422 16.56623 618 ft 21 kts 116°
2026-04-26 16:49 48.11353 16.56826 625 ft 22 kts 116°
2026-04-26 16:50 48.11289 16.57032 624 ft 22 kts 115°
2026-04-26 16:50 48.11217 16.57250 623 ft 24 kts 115°
2026-04-26 16:50 48.11143 16.57476 623 ft 21 kts 119°
2026-04-26 16:50 48.11078 16.57526 618 ft 0 kts 190°
2026-04-26 16:51 48.11078 16.57525 618 ft 0 kts 191°
2026-04-26 16:51 48.11046 16.57504 623 ft 9 kts 206°
2026-04-26 16:51 48.10998 16.57469 624 ft 13 kts 207°
2026-04-26 16:52 48.10985 16.57319 626 ft 16 kts 296°
2026-04-26 16:52 48.11020 16.57213 623 ft 17 kts 296°
2026-04-26 16:52 48.11111 16.57186 629 ft 12 kts 25°
2026-04-26 16:52 48.11196 16.57270 625 ft 18 kts 69°
2026-04-26 16:53 48.11147 16.57463 623 ft 23 kts 116°
2026-04-26 16:53 48.11076 16.57685 623 ft 24 kts 115°
2026-04-26 16:53 48.10951 16.57833 625 ft 24 kts 164°
2026-04-26 16:53 48.10780 16.57904 623 ft 27 kts 164°
2026-04-26 16:54 48.10595 16.57984 619 ft 29 kts 164°
2026-04-26 16:54 48.10391 16.58071 615 ft 31 kts 164°
2026-04-26 16:54 48.10177 16.58164 627 ft 32 kts 165°
2026-04-26 16:54 48.09956 16.58255 620 ft 33 kts 165°
2026-04-26 16:55 48.09749 16.58342 626 ft 30 kts 164°
2026-04-26 16:55 48.09541 16.58429 624 ft 33 kts 164°
2026-04-26 16:55 48.09324 16.58520 628 ft 32 kts 164°
2026-04-26 16:55 48.09112 16.58611 620 ft 32 kts 165°
2026-04-26 16:56 48.08934 16.58928 626 ft 20 kts 66°
2026-04-26 16:56 48.09035 16.59039 624 ft 20 kts 12°
2026-04-26 16:56 48.09324 16.58943 627 ft 79 kts 345°
2026-04-26 16:57 48.10083 16.58619 622 ft 144 kts 345°
2026-04-26 16:57 48.11174 16.58152 926 ft 177 kts 346°
2026-04-26 16:57 48.13752 16.57439 2006 ft 192 kts 10°
2026-04-26 16:58 48.14956 16.58249 2647 ft 194 kts 30°
2026-04-26 16:58 48.15344 16.58606 2862 ft 192 kts 30°
2026-04-26 16:58 48.18589 16.61646 4667 ft 224 kts 28°
2026-04-26 16:59 48.19960 16.62928 5452 ft 238 kts 27°
2026-04-26 16:59 48.22962 16.65653 7007 ft 265 kts 24°
2026-04-26 17:00 48.26279 16.68131 8499 ft 265 kts
2026-04-26 17:00 48.29930 16.68981 10069 ft 270 kts
2026-04-26 17:00 48.31823 16.69330 10819 ft 277 kts
2026-04-26 17:01 48.33772 16.69723 11565 ft 287 kts
2026-04-26 17:01 48.35097 16.70011 12071 ft 293 kts
2026-04-26 17:01 48.37818 16.70632 13097 ft 303 kts
2026-04-26 17:01 48.39927 16.71126 13892 ft 310 kts
2026-04-26 17:02 48.41347 16.71461 14377 ft 314 kts
2026-04-26 17:02 48.44273 16.72152 15323 ft 323 kts
2026-04-26 17:02 48.45765 16.72504 15730 ft 329 kts
2026-04-26 17:02 48.48055 16.73070 16362 ft 337 kts
2026-04-26 17:03 48.50393 16.73666 17005 ft 345 kts
2026-04-26 17:03 48.52794 16.74263 17682 ft 351 kts
2026-04-26 17:03 48.55229 16.74851 18351 ft 356 kts
2026-04-26 17:03 48.57673 16.75428 18957 ft 361 kts
2026-04-26 17:04 48.60182 16.76016 19553 ft 366 kts
2026-04-26 17:04 48.62728 16.76611 20078 ft 373 kts
2026-04-26 17:04 48.65320 16.77217 20568 ft 380 kts
2026-04-26 17:04 48.67964 16.77838 21080 ft 387 kts
2026-04-26 17:05 48.70614 16.78462 21586 ft 393 kts
2026-04-26 17:05 48.73339 16.79016 22105 ft 396 kts
2026-04-26 17:05 48.76109 16.79202 22650 ft 400 kts 359°
2026-04-26 17:05 48.78907 16.79375 23191 ft 404 kts 359°
2026-04-26 17:06 48.81743 16.79562 23755 ft 409 kts 359°
2026-04-26 17:06 48.84563 16.79740 24217 ft 412 kts 357°
2026-04-26 17:06 48.87447 16.79881 24691 ft 415 kts 357°
2026-04-26 17:06 48.90320 16.80025 25164 ft 418 kts 357°
2026-04-26 17:07 48.93211 16.80193 25639 ft 420 kts 357°
2026-04-26 17:07 48.96140 16.80379 26150 ft 422 kts 358°
2026-04-26 17:07 48.99090 16.80577 26661 ft 423 kts 358°
2026-04-26 17:07 49.02006 16.80779 27175 ft 424 kts 357°
2026-04-26 17:08 49.04962 16.80983 27698 ft 424 kts 357°
2026-04-26 17:08 49.07914 16.81186 28221 ft 424 kts 357°
2026-04-26 17:08 49.10866 16.81389 28765 ft 423 kts 357°
2026-04-26 17:08 49.13819 16.81592 29317 ft 422 kts 357°
2026-04-26 17:09 49.16720 16.81792 29875 ft 420 kts 357°
2026-04-26 17:09 49.18657 16.81925 30282 ft 419 kts 357°
2026-04-26 17:09 49.22562 16.82196 30949 ft 417 kts 356°
2026-04-26 17:09 49.25427 16.82393 31429 ft 415 kts 356°
2026-04-26 17:10 49.28308 16.82589 31934 ft 414 kts 356°
2026-04-26 17:10 49.31175 16.82785 32451 ft 411 kts 356°
2026-04-26 17:10 49.34044 16.82980 32858 ft 411 kts 356°
2026-04-26 17:10 49.36918 16.83173 33131 ft 414 kts 356°
2026-04-26 17:11 49.39812 16.83367 33400 ft 417 kts 356°
2026-04-26 17:11 49.42723 16.83564 33700 ft 420 kts 356°
2026-04-26 17:11 49.45661 16.83765 33970 ft 423 kts 356°
2026-04-26 17:11 49.48572 16.83964 34247 ft 424 kts 356°
2026-04-26 17:12 49.54523 16.84371 34731 ft 428 kts 357°
2026-04-26 17:12 49.57503 16.84575 34974 ft 429 kts 357°
2026-04-26 17:13 49.63458 16.84983 35460 ft 431 kts 357°
2026-04-26 17:13 49.66362 16.85183 35727 ft 431 kts 357°
2026-04-26 17:13 49.80449 16.86153 36933 ft 432 kts 357°
2026-04-26 17:14 49.92252 16.86972 37980 ft 428 kts 357°
2026-04-26 17:14 50.15282 16.88572 38246 ft 449 kts 357°
2026-04-26 17:14 50.21572 16.89012 38258 ft 451 kts 358°
2026-04-26 17:15 50.37692 16.90150 38262 ft 448 kts 357°
2026-04-26 17:16 50.43874 16.90586 38260 ft 449 kts 357°
2026-04-26 17:16 50.50133 16.91028 38263 ft 450 kts 358°
2026-04-26 17:17 50.56373 16.91471 38263 ft 450 kts 358°
2026-04-26 17:17 50.62626 16.91933 38261 ft 448 kts 358°
2026-04-26 17:18 50.70645 16.92178 38260 ft 447 kts 355°
2026-04-26 17:18 50.83048 16.92589 38265 ft 445 kts 356°
2026-04-26 17:19 51.01565 16.93407 38264 ft 445 kts 356°
2026-04-26 17:19 51.13869 16.93956 38268 ft 441 kts 356°
2026-04-26 17:20 51.24088 16.94409 38267 ft 441 kts 356°
2026-04-26 17:20 51.38371 16.95048 38266 ft 442 kts 356°
2026-04-26 17:21 51.46499 16.95413 38264 ft 441 kts 356°
2026-04-26 17:21 51.52461 16.95682 38263 ft 441 kts 356°
2026-04-26 17:22 51.69291 16.96446 38265 ft 439 kts 356°
2026-04-26 17:22 51.75934 16.96748 38266 ft 439 kts 356°
2026-04-26 17:23 51.82003 16.97026 38265 ft 437 kts 356°
2026-04-26 17:23 51.88106 16.97305 38264 ft 437 kts 356°
2026-04-26 17:24 51.94194 16.97584 38261 ft 437 kts 356°
2026-04-26 17:24 52.01784 16.97934 38266 ft 437 kts 356°
2026-04-26 17:25 52.18857 16.98726 38272 ft 434 kts 356°
2026-04-26 17:25 52.24927 16.99005 38276 ft 436 kts 356°
2026-04-26 17:26 52.31337 16.99305 38267 ft 436 kts 356°
2026-04-26 17:26 52.54017 17.00371 38276 ft 433 kts 356°
2026-04-26 17:27 52.76624 17.01441 38278 ft 433 kts 356°
2026-04-26 17:27 52.88598 17.02015 38280 ft 432 kts 356°
2026-04-26 17:28 52.98357 17.02484 38278 ft 432 kts 356°
2026-04-26 17:28 53.04334 17.02773 38270 ft 430 kts 356°
2026-04-26 17:29 53.09310 17.03014 38260 ft 431 kts 356°
2026-04-26 17:29 53.16318 17.03352 38290 ft 432 kts 356°
2026-04-26 17:30 53.22348 17.03647 38273 ft 432 kts 356°
2026-04-26 17:30 53.28339 17.03940 38300 ft 432 kts 356°
2026-04-26 17:31 53.46491 17.04831 38283 ft 431 kts 356°
2026-04-26 17:31 53.68875 17.05941 38268 ft 430 kts 356°
2026-04-26 17:32 53.80855 17.06544 38282 ft 428 kts 356°
2026-04-26 17:32 53.87176 17.06862 38282 ft 428 kts 356°
2026-04-26 17:33 53.93157 17.07162 38281 ft 428 kts 356°
2026-04-26 17:34 54.02051 17.07611 38285 ft 429 kts 356°
2026-04-26 17:34 54.08011 17.07913 38283 ft 429 kts 356°
2026-04-26 17:35 54.22451 17.08650 38278 ft 429 kts 356°
2026-04-26 17:35 54.34151 17.09250 38273 ft 428 kts 356°
2026-04-26 17:36 54.40070 17.09554 38267 ft 428 kts 356°
2026-04-26 17:36 54.46048 17.09863 38267 ft 428 kts 356°
2026-04-26 17:37 54.51991 17.10171 38264 ft 428 kts 356°
2026-04-26 17:37 54.57975 17.10482 38285 ft 428 kts 356°
2026-04-26 17:38 54.65422 17.10877 38254 ft 414 kts 356°
2026-04-26 17:38 54.68300 17.11028 38248 ft 414 kts 356°
2026-04-26 17:38 54.74092 17.11324 38248 ft 415 kts 356°
2026-04-26 17:39 54.79854 17.11625 38243 ft 415 kts 356°
2026-04-26 17:39 54.85638 17.11930 38243 ft 415 kts 356°
2026-04-26 17:40 54.89480 17.12133 38239 ft 415 kts 356°
2026-04-26 17:40 54.97191 17.12540 38220 ft 416 kts 356°
2026-04-26 17:41 55.02951 17.12845 38225 ft 416 kts 356°
2026-04-26 17:41 55.08777 17.13156 38231 ft 417 kts 356°
2026-04-26 17:42 55.14564 17.13465 38237 ft 418 kts 356°
2026-04-26 17:42 55.20393 17.13778 38237 ft 418 kts 356°
2026-04-26 17:43 55.26214 17.14091 38232 ft 418 kts 356°
2026-04-26 17:43 55.31997 17.14403 38223 ft 418 kts 356°
2026-04-26 17:44 55.37715 17.14712 38245 ft 418 kts 356°
2026-04-26 17:44 55.43536 17.15028 38228 ft 417 kts 356°
2026-04-26 17:45 55.49297 17.15341 38217 ft 416 kts 356°
2026-04-26 17:45 55.55088 17.15656 38209 ft 415 kts 356°
2026-04-26 17:46 55.60841 17.16070 38209 ft 417 kts
2026-04-26 17:46 55.66605 17.17833 38218 ft 423 kts
2026-04-26 17:47 55.70405 17.19857 38209 ft 425 kts 11°
2026-04-26 17:47 55.77895 17.23970 38196 ft 424 kts 11°
2026-04-26 17:48 55.82628 17.26594 38189 ft 424 kts 11°
2026-04-26 17:48 55.88229 17.29732 38181 ft 424 kts 11°
2026-04-26 17:49 55.93827 17.32883 38198 ft 423 kts 11°
2026-04-26 17:49 55.99449 17.36057 38182 ft 422 kts 11°
2026-04-26 17:50 56.05071 17.39240 38173 ft 422 kts 11°
2026-04-26 17:50 56.10647 17.42406 38171 ft 422 kts 11°
2026-04-26 17:51 56.16226 17.45583 38177 ft 422 kts 11°
2026-04-26 17:51 56.21811 17.48775 38174 ft 422 kts 11°
2026-04-26 17:52 56.27421 17.51990 38170 ft 422 kts 11°
2026-04-26 17:52 56.33017 17.55208 38168 ft 421 kts 11°
2026-04-26 17:53 56.38578 17.58415 38168 ft 421 kts 11°
2026-04-26 17:54 56.48745 17.64303 38177 ft 421 kts 11°
2026-04-26 17:54 56.61258 17.71596 38169 ft 421 kts 12°
2026-04-26 17:55 56.66814 17.74851 38189 ft 421 kts 12°
2026-04-26 17:55 56.72272 17.78058 38171 ft 420 kts 12°
2026-04-26 17:56 56.77859 17.81351 38167 ft 420 kts 12°
2026-04-26 17:57 56.88973 17.87933 38161 ft 420 kts 12°
2026-04-26 17:57 57.00698 17.94920 38164 ft 420 kts 12°
2026-04-26 17:58 57.11379 18.01349 38152 ft 390 kts 11°
2026-04-26 17:59 57.16631 18.02049 38155 ft 381 kts 344°
2026-04-26 17:59 57.19035 18.00558 38181 ft 380 kts 332°
2026-04-26 17:59 57.21238 17.97846 38159 ft 380 kts 318°
2026-04-26 17:59 57.22886 17.94374 38157 ft 383 kts 306°
2026-04-26 18:00 57.24022 17.90213 38152 ft 389 kts 292°
2026-04-26 18:00 57.24604 17.85362 38158 ft 397 kts 283°
2026-04-26 18:00 57.25254 17.75220 38160 ft 395 kts 286°
2026-04-26 18:01 57.25979 17.70379 38157 ft 387 kts 297°
2026-04-26 18:01 57.27276 17.66074 38134 ft 380 kts 310°
2026-04-26 18:01 57.29096 17.62577 38100 ft 378 kts 323°
2026-04-26 18:01 57.31315 17.60050 37865 ft 379 kts 335°
2026-04-26 18:02 57.33829 17.58631 37588 ft 382 kts 348°
2026-04-26 18:02 57.35634 17.58348 37406 ft 384 kts 356°
2026-04-26 18:02 57.39199 17.58957 37045 ft 387 kts
2026-04-26 18:02 57.41873 17.59500 36776 ft 386 kts
2026-04-26 18:03 57.44552 17.60037 36512 ft 385 kts
2026-04-26 18:03 57.47182 17.60562 36248 ft 384 kts
2026-04-26 18:03 57.49863 17.61095 35994 ft 392 kts
2026-04-26 18:03 57.52632 17.61639 35735 ft 405 kts
2026-04-26 18:04 57.55450 17.62201 35471 ft 407 kts
2026-04-26 18:04 57.58228 17.62766 35200 ft 404 kts
2026-04-26 18:04 57.61023 17.63336 34941 ft 402 kts
2026-04-26 18:05 57.66602 17.64467 34435 ft 401 kts
2026-04-26 18:05 57.69380 17.65029 34185 ft 400 kts
2026-04-26 18:05 57.72150 17.65591 33898 ft 400 kts
2026-04-26 18:05 57.74890 17.66145 33608 ft 400 kts
2026-04-26 18:06 57.77664 17.66708 33313 ft 400 kts
2026-04-26 18:06 57.80431 17.67271 33079 ft 399 kts
2026-04-26 18:06 57.83181 17.67834 32792 ft 395 kts
2026-04-26 18:06 57.85923 17.68394 32430 ft 397 kts
2026-04-26 18:07 57.88685 17.68957 32061 ft 398 kts
2026-04-26 18:07 57.91409 17.69513 31699 ft 398 kts
2026-04-26 18:07 57.94173 17.70080 31342 ft 398 kts
2026-04-26 18:07 57.95997 17.70455 31105 ft 399 kts
2026-04-26 18:08 57.99656 17.71213 30639 ft 387 kts
2026-04-26 18:08 58.02270 17.71760 30309 ft 376 kts
2026-04-26 18:08 58.04839 17.72297 29903 ft 367 kts 360°
2026-04-26 18:08 58.07350 17.72817 29433 ft 358 kts 360°
2026-04-26 18:09 58.09798 17.73323 29028 ft 350 kts 360°
2026-04-26 18:09 58.12205 17.73820 28599 ft 344 kts 360°
2026-04-26 18:09 58.14552 17.74302 28184 ft 341 kts 360°
2026-04-26 18:09 58.16891 17.74787 27778 ft 334 kts 359°
2026-04-26 18:10 58.19182 17.75265 27383 ft 327 kts 359°
2026-04-26 18:10 58.21421 17.75733 27005 ft 320 kts 359°
2026-04-26 18:10 58.23619 17.76192 26639 ft 313 kts 359°
2026-04-26 18:10 58.25742 17.76635 26278 ft 307 kts 359°
2026-04-26 18:11 58.27862 17.77074 25881 ft 307 kts 359°
2026-04-26 18:11 58.29991 17.77512 25405 ft 308 kts 359°
2026-04-26 18:11 58.32118 17.77954 24939 ft 306 kts 359°
2026-04-26 18:11 58.34225 17.78396 24485 ft 303 kts 359°
2026-04-26 18:12 58.36327 17.78838 24025 ft 303 kts 359°
2026-04-26 18:12 58.38392 17.79271 23473 ft 299 kts 359°
2026-04-26 18:12 58.40456 17.79705 22862 ft 296 kts 359°
2026-04-26 18:12 58.42492 17.80135 22264 ft 293 kts 359°
2026-04-26 18:13 58.44516 17.80561 21677 ft 290 kts 360°
2026-04-26 18:13 58.46494 17.80978 21108 ft 287 kts 360°
2026-04-26 18:13 58.48478 17.81396 20533 ft 285 kts 360°
2026-04-26 18:13 58.49780 17.81671 20166 ft 283 kts 360°
2026-04-26 18:14 58.52370 17.82219 19503 ft 278 kts
2026-04-26 18:14 58.54281 17.82625 19017 ft 275 kts
2026-04-26 18:14 58.56181 17.83027 18537 ft 273 kts
2026-04-26 18:14 58.58070 17.83426 18005 ft 272 kts
2026-04-26 18:15 58.59928 17.83820 17446 ft 269 kts
2026-04-26 18:15 58.61788 17.84215 16909 ft 267 kts
2026-04-26 18:15 58.63637 17.84609 16380 ft 265 kts
2026-04-26 18:15 58.65475 17.84999 15895 ft 265 kts
2026-04-26 18:16 58.67279 17.85382 15346 ft 263 kts
2026-04-26 18:16 58.70893 17.86155 14341 ft 259 kts
2026-04-26 18:16 58.72691 17.86539 13839 ft 259 kts
2026-04-26 18:17 58.74456 17.86918 13293 ft 258 kts
2026-04-26 18:17 58.76247 17.87303 12667 ft 260 kts
2026-04-26 18:17 58.78064 17.87692 12072 ft 263 kts
2026-04-26 18:17 58.79899 17.88092 11486 ft 267 kts
2026-04-26 18:18 58.81714 17.88872 11183 ft 264 kts 12°
2026-04-26 18:18 58.83414 17.90176 11108 ft 266 kts 20°
2026-04-26 18:18 58.85074 17.91769 11100 ft 267 kts 20°
2026-04-26 18:18 58.86745 17.93342 11100 ft 267 kts 20°
2026-04-26 18:19 58.88417 17.94908 11102 ft 267 kts 20°
2026-04-26 18:19 58.90077 17.96465 11104 ft 267 kts 20°
2026-04-26 18:19 58.91755 17.98047 11101 ft 267 kts 20°
2026-04-26 18:19 58.93423 17.99625 11098 ft 267 kts 20°
2026-04-26 18:20 58.95078 18.01194 11096 ft 267 kts 20°
2026-04-26 18:20 58.96753 18.02783 11011 ft 269 kts 20°
2026-04-26 18:20 58.98440 18.04385 10658 ft 270 kts 20°
2026-04-26 18:20 58.99012 18.04928 10528 ft 269 kts 21°
2026-04-26 18:21 59.01794 18.07577 9883 ft 267 kts 21°
2026-04-26 18:21 59.03444 18.09147 9468 ft 267 kts 21°
2026-04-26 18:21 59.05108 18.10735 9161 ft 262 kts 21°
2026-04-26 18:21 59.06749 18.12303 9097 ft 265 kts 21°
2026-04-26 18:22 59.08329 18.13808 9091 ft 264 kts 20°
2026-04-26 18:22 59.10048 18.15003 8871 ft 261 kts
2026-04-26 18:22 59.11814 18.15480 8458 ft 257 kts 359°
2026-04-26 18:22 59.13596 18.15646 8060 ft 255 kts 360°
2026-04-26 18:23 59.15364 18.15840 7664 ft 252 kts
2026-04-26 18:23 59.17116 18.16044 7281 ft 250 kts
2026-04-26 18:23 59.18790 18.16244 7119 ft 237 kts
2026-04-26 18:23 59.20405 18.16440 6933 ft 230 kts
2026-04-26 18:24 59.22006 18.16628 6552 ft 230 kts
2026-04-26 18:24 59.23615 18.16815 6148 ft 231 kts
2026-04-26 18:24 59.25227 18.17004 5741 ft 231 kts
2026-04-26 18:24 59.26813 18.17189 5350 ft 231 kts
2026-04-26 18:25 59.28376 18.16789 5066 ft 224 kts 335°
2026-04-26 18:25 59.29519 18.14891 4998 ft 212 kts 308°
2026-04-26 18:25 59.30341 18.12600 4995 ft 200 kts 307°
2026-04-26 18:25 59.31138 18.10351 5001 ft 204 kts 307°
2026-04-26 18:26 59.31950 18.08064 4856 ft 204 kts 307°
2026-04-26 18:26 59.32757 18.05790 4575 ft 203 kts 307°
2026-04-26 18:26 59.33561 18.03518 4324 ft 202 kts 307°
2026-04-26 18:26 59.34358 18.01263 4068 ft 200 kts 307°
2026-04-26 18:27 59.35126 17.99077 3998 ft 187 kts 307°
2026-04-26 18:27 59.35866 17.96967 3998 ft 192 kts 307°
2026-04-26 18:27 59.36624 17.94816 3999 ft 190 kts 308°
2026-04-26 18:27 59.37590 17.93173 4000 ft 178 kts 335°
2026-04-26 18:28 59.38682 17.92254 3994 ft 165 kts 337°
2026-04-26 18:28 59.39753 17.91392 3999 ft 169 kts 337°
2026-04-26 18:28 59.40835 17.90521 3999 ft 167 kts 337°
2026-04-26 18:28 59.41913 17.89654 3999 ft 167 kts 337°
2026-04-26 18:29 59.43003 17.88846 3998 ft 167 kts 345°
2026-04-26 18:29 59.44166 17.88602 3966 ft 168 kts 359°
2026-04-26 18:29 59.45318 17.88834 3774 ft 169 kts
2026-04-26 18:29 59.46473 17.89251 3519 ft 167 kts
2026-04-26 18:30 59.47620 17.89662 3277 ft 167 kts
2026-04-26 18:30 59.48760 17.90072 3035 ft 166 kts
2026-04-26 18:30 59.49889 17.90478 2795 ft 162 kts
2026-04-26 18:30 59.50961 17.90864 2571 ft 155 kts
2026-04-26 18:31 59.52003 17.91239 2363 ft 148 kts
2026-04-26 18:31 59.52983 17.91592 2170 ft 142 kts
2026-04-26 18:31 59.53965 17.91943 1974 ft 143 kts
2026-04-26 18:31 59.54946 17.92297 1780 ft 144 kts
2026-04-26 18:32 59.55938 17.92655 1581 ft 144 kts
2026-04-26 18:32 59.56936 17.93014 1371 ft 146 kts
2026-04-26 18:32 59.57918 17.93369 1157 ft 145 kts
2026-04-26 18:32 59.58872 17.93746 901 ft 134 kts
2026-04-26 18:33 59.59770 17.94087 759 ft 131 kts
2026-04-26 18:33 59.60372 17.94293 651 ft 132 kts
2026-04-26 18:33 59.61285 17.94605 479 ft 136 kts
2026-04-26 18:33 59.62545 17.95058 240 ft 139 kts
2026-04-26 18:34 59.63153 17.95269 158 ft 127 kts
2026-04-26 18:34 59.63908 17.95505 144 ft 83 kts 12°
2026-04-26 18:34 59.64358 17.95675 145 ft 59 kts
2026-04-26 18:34 59.64693 17.95557 138 ft 30 kts 341°
2026-04-26 18:35 59.64780 17.95493 138 ft 8 kts 341°
2026-04-26 18:35 59.64785 17.95490 138 ft 0 kts 341°